2023-001M (55020 NORAD) Tracking and Keplerian Element Data

This shows tracking and keplerian element data for the satellite.

Feedback or suggestion? Click here.




ElementValue
Catalog55020
Name2023-001M
Epoch Orbit169
Epoch Day13.78722601
Epoch Year2023
RAAN75.7283
Inclination97.5016
Eccentricity0.0011364
Argument of Perigee181.2516
Mean Anonmoly178.8688
Mean Motion15.12339184
Decay Rate0.0001164
L11 55020U 23001M 23013.78722601 .00011640 00000+0 67376-3 0 9993
L22 55020 97.5016 75.7283 0011364 181.2516 178.8688 15.12339184 1692



Live tracking and technical data element details for 2023-001M (NORAD 55020). 2023-001M can be tracked NOW for your location showing map with azimuth and elevation plus other details from your city location.







IsCatalogInMostPopularTable: catalog: 55020, numindb: 3
Update: records affected: 1



GetName: 55020 2023-001M

Hit Count: updated at: Tue, 07 Feb 2023 15:23:25 GMT